Aérodrome :
LOGIN :

S'inscrire | Disclaimer

   EN    FR    IT 

 










Légende :    VFR   VFR Marginal   IFR   IFR Intensif   IFR Très Intensif
Visi : 
Plafond : 
>= 8 km
>= 3000ft
5 à 8 km
1000 à 3000 ft
1500m à 5 km
500 à 1000 ft
800 à 1500m
200 à 500 ft
< 800m
< 200 ft
Symboles :   Orages  Brouillard  Fortes neiges  Fortes précipitations  Vent > 20 kt
SIGMETs :   Divers  Orages  Givrage  Turbulence  Onde Orograph.  Cendres Volcan.







- Altitude de l'aérodrome : 26 ft
- Code IATA : SYY
- Voir les cartes d'approche


EGPO - Stornoway

DERNIER METAR :
  • 190620Z 24006KT 9999 -SHRA FEW011 FEW018CB BKN048 12/11 Q0998

METARs EXPIRÉS :
  • 190550Z 22005KT 180V240 9999 FEW011 BKN048 12/11 Q0998
  • 190520Z 20006KT 9999 FEW011 SCT016 BKN032 11/10 Q0998
  • 190450Z 24007KT 9999 FEW009 SCT022 11/10 Q0998
  • 190420Z AUTO 26009KT 9999 OVC021/// 12/10 Q0997

TAF TAF EGPO
Valide du 19 à 06h jusqu'au 19 à 15h UTC


190456Z 1906/1915 26012KT 9999 SCT012
TEMPO 1906/1915 5000 SHRA BKN012
PROB40
TEMPO 1906/1915 BKN008
ATIS : +44 1851 707 444
Pas de NOTAMs connus pour ce terrain.



MET'MAP, la Météo Aéronautique d'un coup d'oeil ! - Copyright ORBIFLY Décembre 2007 - Disclaimer

ORBIFLY MET'MAP TEAM :

Programmation & Développement : Alexandra Zaïnal
Conception & Développement : Baudouin d'Aumeries
Co-Programmation & Développement : Marc-Olivier Méhu
Soutien technique & logistique : Manuel Goepfert

Contact : metmap@orbifly.com




SOURCES & CREDITS :

   NOAA